Zurück zum Katalog

TIANLIAN-3 01

AktivKommunikationGEO
NORAD 100172·PAYLOAD·🇨🇳 China

Gestartet Jul 29, 2026 von Wenchang Space Launch Site

Loading…

TLE

AktuellSource: Space-Track

Epoche: Sep 14, 2026, 09:07 UTC

1 A0172U 26172A   26257.37993850 -.00000271  00000-0  00000-0 0  9995
2 A0172   0.0757   8.9886 0001310 123.7759  91.4966  1.00268260   470

Verfolge TIANLIAN-3 01 in Echtzeit mit AllMySat

Download on the App Store